Location: Great Falls Observatory Park
(38.9954°N, 77.3130°W)
Time: 13:03:05
(UTC-04:00)

N. Korean satellite - Visible Passes

Search period start: 19 March 2019 00:00
Search period end: 29 March 2019 00:00
Orbit: 455 x 511 km, 97.2° (Epoch: 18 March)

Date Brightness Start Highest point End Pass type
(mag) Time Alt. Az. Time Alt. Az. Time Alt. Az.
19 Mar 9.4 06:40:35 10° NE 06:43:30 24° E 06:46:26 10° SSE visible
20 Mar 10.2 06:17:11 10° ENE 06:18:33 12° E 06:19:55 10° ESE visible
23 Mar 9.7 06:34:53 10° NE 06:37:38 21° E 06:40:24 10° SE visible
24 Mar 10.6 06:12:19 10° E 06:12:39 10° E 06:12:59 10° E visible
27 Mar 9.8 06:29:10 10° NE 06:31:42 18° E 06:34:16 10° SE visible
